sat.trackr.live / text

‹ back to catalog

STARLINK-32574

NORAD 61954 · 2024-209R

PAYLOAD ACTIVE UNKNOWN

§ Identity

Operator
Country
US
Launch date
2024-11-14
Launch site
AFWTR
Launch vehicle
Mass (kg)
RCS (m²)

Purposes: comms

External: N2YO · Heavens-Above · Gunter

§ Orbital elements

Epoch: 2026-05-24T21:06:57.217824Z

Period
93.37 min
Inclination
53.1582°
Eccentricity
0.0001350
Mean motion
15.42193176 rev/d
Perigee alt
438.7 km
Apogee alt
440.6 km
Semi-major
6,817.8 km
B*
1.0589e-3
RAAN
146.2556°
Arg perigee
87.6894°
Mean anomaly
272.4266°
Rev number
8,661

§ Raw data

STARLINK-325741 61954U 24209R   26144.87982891  .00045995  00000+0  10589-2 0  99972 61954  53.1582 146.2556 0001350  87.6894 272.4266 15.42193176 86610

JSON: /api/v1/satellites/61954 · /tle

For live sub-satellite position, see the globe view (requires WebGL).

§ Visibility from observer

Set your observer location to see the next 7 days of passes ≥ 10°. The values pass through the URL so the page stays shareable.

No JS? Fill the form by hand. The geolocation button needs JavaScript.